Location: Elstree
(51.6403°N, 0.2969°W)
Time: 21:24:56
(UTC+00:00)

Cosmos 1862 Rocket - Pass Details

Date: 03 March 2021
Orbit: 603 x 634 km, 82.5° (Epoch: 15 April)

Event Time Altitude Azimuth Distance (km) Brightness Sun altitude
Rises 18:58:00 0° 346° (NNW) 2,946 7.3 -12.1°
Reaches altitude 10° 19:00:17 10° 342° (NNW) 2,033 6.5 -12.4°
Maximum altitude 19:04:41 57° 265° (W) 755 4.4 -13.1°
Drops below altitude 10° 19:09:04 10° 187° (S) 2,012 6.2 -13.8°
Sets 19:11:19 0° 183° (S) 2,912 7.0 -14.1°
